TimeAWST,TemperatureF,Dew PointF,Humidity,Sea Level PressureIn,VisibilityMPH,Wind Direction,Wind SpeedMPH,Gust SpeedMPH,PrecipitationIn,Events,Conditions,WindDirDegrees,DateUTC
12:00 AM,50,46,83,30.16,16,NNE,6.9,,,,Partly Cloudy,30,2013-06-07 16:00:00
12:00 AM,50.0,46.4,87,30.15,-9999.0,NNE,6.9,-,N/A,,Clear,30,2013-06-07 16:00:00
12:30 AM,50.0,46.4,87,30.15,-9999.0,North,5.8,-,N/A,,Clear,10,2013-06-07 16:30:00
1:00 AM,48.2,44.6,87,30.15,-9999.0,North,5.8,-,N/A,,Clear,360,2013-06-07 17:00:00
1:30 AM,46.4,44.6,93,30.15,-9999.0,North,6.9,-,N/A,,Clear,10,2013-06-07 17:30:00
2:00 AM,49,45,82,30.14,,NNE,6.9,,,,,30,2013-06-07 18:00:00
2:00 AM,48.2,44.6,87,30.12,-9999.0,NNE,6.9,-,N/A,,Clear,30,2013-06-07 18:00:00
2:30 AM,48.2,44.6,87,30.12,-9999.0,North,6.9,-,N/A,,Clear,360,2013-06-07 18:30:00
3:00 AM,46,44,90,30.13,16,North,8.1,,,,Partly Cloudy,0,2013-06-07 19:00:00
3:00 AM,46.4,44.6,93,30.12,-9999.0,North,8.1,-,N/A,,Clear,360,2013-06-07 19:00:00
3:30 AM,46.4,44.6,93,30.12,-9999.0,North,6.9,-,N/A,,Clear,10,2013-06-07 19:30:00
4:00 AM,46.4,44.6,93,30.09,-9999.0,North,6.9,-,N/A,,Clear,10,2013-06-07 20:00:00
4:30 AM,46.4,44.6,93,30.09,-9999.0,NNE,8.1,-,N/A,,Clear,20,2013-06-07 20:30:00
5:00 AM,47,43,82,30.11,,North,8.1,,,,,10,2013-06-07 21:00:00
5:00 AM,46.4,42.8,87,30.09,-9999.0,North,8.1,-,N/A,,Clear,10,2013-06-07 21:00:00
5:30 AM,46.4,42.8,87,30.09,-9999.0,North,5.8,-,N/A,,Clear,10,2013-06-07 21:30:00
6:00 AM,45,42,87,30.11,16,North,8.1,,,,Partly Cloudy,10,2013-06-07 22:00:00
6:00 AM,44.6,42.8,93,30.09,-9999.0,North,8.1,-,N/A,,Clear,10,2013-06-07 22:00:00
6:30 AM,44.6,42.8,93,30.09,-9999.0,North,8.1,-,N/A,,Clear,10,2013-06-07 22:30:00
7:00 AM,42.8,41.0,93,30.09,-9999.0,North,6.9,-,N/A,,Clear,360,2013-06-07 23:00:00
7:30 AM,44.6,42.8,93,30.12,-9999.0,North,6.9,-,N/A,,Clear,360,2013-06-07 23:30:00
8:00 AM,47,43,79,30.14,,NNE,5.8,,,,,20,2013-06-08 00:00:00
8:00 AM,46.4,42.8,87,30.12,-9999.0,NNE,5.8,-,N/A,,Clear,20,2013-06-08 00:00:00
8:30 AM,50.0,42.8,76,30.12,6.2,NNE,6.9,-,N/A,,Scattered Clouds,20,2013-06-08 00:30:00
9:00 AM,52,44,68,30.14,19,North,4.6,,,,Partly Cloudy,0,2013-06-08 01:00:00
9:00 AM,51.8,44.6,76,30.12,6.2,North,4.6,-,N/A,,Mostly Cloudy,360,2013-06-08 01:00:00
9:30 AM,53.6,46.4,77,30.12,6.2,North,5.8,-,N/A,,Mostly Cloudy,350,2013-06-08 01:30:00
10:00 AM,57.2,46.4,67,30.12,6.2,NNE,6.9,-,N/A,,Scattered Clouds,20,2013-06-08 02:00:00
10:30 AM,59.0,46.4,63,30.12,6.2,North,6.9,-,N/A,,Scattered Clouds,360,2013-06-08 02:30:00
11:00 AM,61,48,52,30.12,,North,5.8,,,,,0,2013-06-08 03:00:00
11:00 AM,60.8,48.2,63,30.12,6.2,North,5.8,-,N/A,,Scattered Clouds,360,2013-06-08 03:00:00
11:30 AM,62.6,48.2,59,30.09,6.2,North,4.6,-,N/A,,Scattered Clouds,350,2013-06-08 03:30:00
12:00 PM,66.2,50.0,56,30.09,6.2,WNW,5.8,-,N/A,,Scattered Clouds,300,2013-06-08 04:00:00
12:30 PM,68.0,51.8,56,30.06,6.2,West,4.6,-,N/A,,Scattered Clouds,260,2013-06-08 04:30:00
1:00 PM,68.0,53.6,60,30.06,6.2,West,9.2,-,N/A,,Scattered Clouds,260,2013-06-08 05:00:00
1:30 PM,66.2,53.6,64,30.06,6.2,SW,15.0,-,N/A,,Scattered Clouds,230,2013-06-08 05:30:00
2:00 PM,67,53,51,30.07,,WSW,10.4,,,,,250,2013-06-08 06:00:00
2:00 PM,66.2,53.6,64,30.06,6.2,WSW,10.4,-,N/A,,Scattered Clouds,250,2013-06-08 06:00:00
2:30 PM,66.2,51.8,60,30.06,6.2,WSW,12.7,-,N/A,,Scattered Clouds,240,2013-06-08 06:30:00
3:00 PM,67,51,47,30.06,19,WSW,11.5,,,,Partly Cloudy,250,2013-06-08 07:00:00
3:00 PM,66.2,51.8,60,30.04,6.2,WSW,11.5,-,N/A,,Partly Cloudy,250,2013-06-08 07:00:00
3:30 PM,68.0,51.8,56,30.06,6.2,West,10.4,-,N/A,,Partly Cloudy,270,2013-06-08 07:30:00
4:00 PM,68.0,50.0,52,30.06,6.2,West,10.4,-,N/A,,Partly Cloudy,270,2013-06-08 08:00:00
4:30 PM,66.2,48.2,52,30.06,6.2,WNW,9.2,-,N/A,,Partly Cloudy,290,2013-06-08 08:30:00
5:00 PM,65,49,46,30.07,,West,8.1,,,,,270,2013-06-08 09:00:00
5:00 PM,64.4,50.0,59,30.06,6.2,West,8.1,-,N/A,,Partly Cloudy,270,2013-06-08 09:00:00
5:30 PM,62.6,50.0,63,30.06,6.2,West,5.8,-,N/A,,Partly Cloudy,280,2013-06-08 09:30:00
6:00 PM,58,51,70,30.09,19,WNW,3.5,,,,Partly Cloudy,300,2013-06-08 10:00:00
6:00 PM,57.2,50.0,77,30.06,6.2,WNW,3.5,-,N/A,,Scattered Clouds,300,2013-06-08 10:00:00
6:30 PM,59.0,51.8,77,30.06,6.2,NW,4.6,-,N/A,,Mostly Cloudy,310,2013-06-08 10:30:00
7:00 PM,59.0,51.8,77,30.09,6.2,North,4.6,-,N/A,,Mostly Cloudy,360,2013-06-08 11:00:00
7:30 PM,60.8,51.8,72,30.09,6.2,North,4.6,-,N/A,,Mostly Cloudy,360,2013-06-08 11:30:00
8:00 PM,60,52,67,30.12,,NNE,6.9,,,,,30,2013-06-08 12:00:00
8:00 PM,60.8,51.8,72,30.09,6.2,NNE,6.9,-,N/A,,Mostly Cloudy,30,2013-06-08 12:00:00
8:30 PM,60.8,51.8,72,30.09,6.2,NNE,8.1,-,N/A,,Mostly Cloudy,20,2013-06-08 12:30:00
9:00 PM,60,54,73,30.12,19,NNE,8.1,,,,Partly Cloudy,30,2013-06-08 13:00:00
9:00 PM,59.0,53.6,82,30.09,6.2,NNE,8.1,-,N/A,,Mostly Cloudy,30,2013-06-08 13:00:00
9:30 PM,60.8,53.6,77,30.09,6.2,NNE,6.9,-,N/A,,Mostly Cloudy,20,2013-06-08 13:30:00
10:00 PM,59.0,53.6,82,30.09,6.2,North,6.9,-,N/A,,Mostly Cloudy,10,2013-06-08 14:00:00
10:30 PM,59.0,53.6,82,30.09,6.2,North,5.8,-,N/A,,Mostly Cloudy,10,2013-06-08 14:30:00
11:00 PM,60,54,73,30.11,,North,8.1,,,,,10,2013-06-08 15:00:00
11:00 PM,60.8,53.6,77,30.09,6.2,North,8.1,-,N/A,,Mostly Cloudy,10,2013-06-08 15:00:00
11:30 PM,59.0,53.6,82,30.09,6.2,North,9.2,-,N/A,,Mostly Cloudy,360,2013-06-08 15:30:00